Location: Holbach
(51.5399°N, 10.6036°E)
Time: 10:22:36
(UTC+00:00)

Cosmos 1092 Rocket - Pass Details

Date: 19 June 2021
Orbit: 955 x 994 km, 82.9° (Epoch: 28 July)

Event Time Altitude Azimuth Distance (km) Brightness Sun altitude
Exits shadow 00:45:59 12° 169° (S) 2,571 5.7 -12.6°
Maximum altitude 00:51:39 57° 93° (E) 1,116 4.4 -12.3°
Drops below altitude 10° 00:57:40 10° 16° (NNE) 2,702 7.8 -12.0°
Sets 01:00:12 0° 13° (NNE) 3,655 8.9 -11.8°
